When you browse on this site, cookies collect data to enhance your experience and personalize the content and advertising you see.
Visit our Privacy Policy to learn more. By continuing to use the site, you agree to this use of cookies and data.
  • In France
  • List of Countries
  • For 7 days
  • Water Temperature
  • Satellite Maps
  • Weather Map
  • Weather Widgets
  • user-avatar
    Login

    Hourly Weather Sylhet

    Today, 19 February, Tuesday

    Time Temperature Precipitation Wind Pressure Humidity
    00:00 +18°C° 0 mm 1 mps 759 mmHg 63%
    01:00 +17°C° 0 mm 2 mps 759 mmHg 63%
    02:00 +17°C° 0 mm 2 mps 759 mmHg 63%
    03:00 +16°C° 0 mm 2 mps 758 mmHg 63%
    04:00 +16°C° 0 mm 2 mps 759 mmHg 64%
    05:00 +16°C° 0 mm 2 mps 759 mmHg 66%
    06:00 +15°C° 0 mm 2 mps 759 mmHg 71%
    07:00 +17°C° 0 mm 2 mps 759 mmHg 66%
    08:00 +19°C° 0 mm 2 mps 760 mmHg 61%
    09:00 +21°C° 0 mm 2 mps 760 mmHg 56%
    10:00 +25°C° 0 mm 2 mps 760 mmHg 49%
    11:00 +27°C° 0 mm 2 mps 760 mmHg 42%
    12:00 +29°C° 0 mm 1 mps 761 mmHg 34%
    13:00 +30°C° 0 mm 1 mps 760 mmHg 32%
    14:00 +30°C° 0 mm 2 mps 759 mmHg 31%
    15:00 +30°C° 0 mm 3 mps 759 mmHg 29%
    16:00 +28°C° 0 mm 2 mps 759 mmHg 34%
    17:00 +26°C° 0 mm 2 mps 759 mmHg 39%
    18:00 +24°C° 0 mm 1 mps 759 mmHg 44%
    19:00 +23°C° 0 mm 2 mps 760 mmHg 45%
    20:00 +21°C° 0 mm 2 mps 760 mmHg 47%
    21:00 +20°C° 0 mm 2 mps 761 mmHg 48%
    22:00 +19°C° 0 mm 2 mps 761 mmHg 50%
    23:00 +19°C° 0 mm 2 mps 761 mmHg 51%

    Tomorrow, 20 February, Wednesday

    Time Temperature Precipitation Wind Pressure Humidity
    00:00 +18°C° 0 mm 2 mps 761 mmHg 52%
    01:00 +18°C° 0 mm 2 mps 761 mmHg 53%
    02:00 +18°C° 0 mm 2 mps 761 mmHg 54%
    03:00 +19°C° 0 mm 1 mps 760 mmHg 55%
    04:00 +17°C° 0 mm 2 mps 761 mmHg 56%
    05:00 +17°C° 0 mm 2 mps 761 mmHg 57%
    06:00 +17°C° 0 mm 2 mps 761 mmHg 58%
    07:00 +18°C° 0 mm 2 mps 761 mmHg 55%
    08:00 +20°C° 0 mm 2 mps 762 mmHg 53%
    09:00 +23°C° 0 mm 2 mps 763 mmHg 50%
    10:00 +26°C° 0 mm 2 mps 762 mmHg 47%
    11:00 +28°C° 0 mm 1 mps 762 mmHg 44%
    12:00 +30°C° 0 mm 1 mps 762 mmHg 41%
    13:00 +31°C° 0 mm 1 mps 761 mmHg 40%
    14:00 +31°C° 0 mm 2 mps 760 mmHg 38%
    15:00 +32°C° 0 mm 2 mps 760 mmHg 37%
    16:00 +30°C° 0 mm 2 mps 760 mmHg 43%
    17:00 +28°C° 0 mm 2 mps 760 mmHg 48%
    18:00 +26°C° 0 mm 2 mps 760 mmHg 53%
    19:00 +25°C° 0 mm 2 mps 761 mmHg 54%
    20:00 +24°C° 0 mm 2 mps 761 mmHg 56%
    21:00 +23°C° 0 mm 2 mps 762 mmHg 57%
    22:00 +21°C° 0 mm 2 mps 762 mmHg 58%
    23:00 +21°C° 0 mm 2 mps 763 mmHg 59%

    Day after tomorrow, 21 February, Thursday

    Time Temperature Precipitation Wind Pressure Humidity
    00:00 +21°C° 0 mm 1 mps 763 mmHg 60%
    01:00 +21°C° 0 mm 1 mps 762 mmHg 62%
    02:00 +19°C° 0 mm 2 mps 762 mmHg 64%
    03:00 +19°C° 0 mm 2 mps 762 mmHg 66%
    04:00 +18°C° 0 mm 2 mps 762 mmHg 68%
    05:00 +18°C° 0 mm 2 mps 762 mmHg 71%
    06:00 +17°C° 0 mm 2 mps 762 mmHg 73%
    07:00 +19°C° 0 mm 2 mps 762 mmHg 67%
    08:00 +22°C° 0 mm 3 mps 763 mmHg 61%
    09:00 +25°C° 0 mm 3 mps 763 mmHg 55%
    10:00 +27°C° 0 mm 2 mps 762 mmHg 48%
    11:00 +29°C° 0 mm 2 mps 762 mmHg 41%
    12:00 +31°C° 0 mm 1 mps 761 mmHg 34%
    13:00 +31°C° 0 mm 1 mps 760 mmHg 33%
    14:00 +32°C° 0 mm 2 mps 759 mmHg 31%
    15:00 +32°C° 0 mm 2 mps 759 mmHg 29%
    16:00 +30°C° 0 mm 2 mps 759 mmHg 34%
    17:00 +28°C° 0 mm 1 mps 759 mmHg 39%
    18:00 +26°C° 0 mm 1 mps 759 mmHg 44%
    19:00 +25°C° 0 mm 1 mps 759 mmHg 46%
    20:00 +24°C° 0 mm 1 mps 760 mmHg 49%
    21:00 +23°C° 0 mm 1 mps 761 mmHg 51%
    22:00 +23°C° 0 mm 1 mps 760 mmHg 53%
    23:00 +22°C° 0 mm 1 mps 760 mmHg 54%

    22 February, Friday

    Time Temperature Precipitation Wind Pressure Humidity
    00:00 +21°C° 0 mm 1 mps 760 mmHg 56%
    01:00 +21°C° 0 mm 1 mps 760 mmHg 57%
    02:00 +20°C° 0 mm 1 mps 759 mmHg 59%
    03:00 +20°C° 0 mm 1 mps 759 mmHg 60%
    04:00 +19°C° 0 mm 1 mps 759 mmHg 62%
    05:00 +19°C° 0 mm 1 mps 759 mmHg 64%
    06:00 +18°C° 0 mm 2 mps 759 mmHg 65%
    07:00 +20°C° 0 mm 2 mps 760 mmHg 60%
    08:00 +23°C° 0 mm 2 mps 760 mmHg 56%
    09:00 +25°C° 0 mm 2 mps 761 mmHg 51%
    10:00 +27°C° 0 mm 1 mps 760 mmHg 46%
    11:00 +29°C° 0 mm 1 mps 760 mmHg 40%
    12:00 +32°C° 0 mm 1 mps 759 mmHg 35%
    13:00 +32°C° 0 mm 1 mps 759 mmHg 34%
    14:00 +32°C° 0 mm 2 mps 758 mmHg 33%
    15:00 +32°C° 0 mm 2 mps 757 mmHg 32%
    16:00 +30°C° 0 mm 2 mps 757 mmHg 37%
    17:00 +28°C° 0 mm 1 mps 757 mmHg 42%
    18:00 +26°C° 0 mm 1 mps 757 mmHg 47%
    19:00 +25°C° 0 mm 1 mps 758 mmHg 49%
    20:00 +25°C° 0 mm 1 mps 758 mmHg 52%
    21:00 +22°C° 0 mm 0 mps 759 mmHg 54%
    22:00 +23°C° 0 mm 1 mps 759 mmHg 56%
    23:00 +23°C° 0 mm 1 mps 759 mmHg 57%

    23 February, Saturday

    Time Temperature Precipitation Wind Pressure Humidity
    00:00 +22°C° 0 mm 1 mps 759 mmHg 59%
    01:00 +22°C° 0 mm 1 mps 758 mmHg 61%
    02:00 +20°C° 0 mm 2 mps 758 mmHg 64%
    03:00 +19°C° 0 mm 2 mps 757 mmHg 66%
    04:00 +19°C° 0 mm 2 mps 757 mmHg 68%
    05:00 +18°C° 0 mm 2 mps 758 mmHg 69%
    06:00 +18°C° 0 mm 2 mps 758 mmHg 71%
    07:00 +20°C° 0 mm 2 mps 758 mmHg 65%
    08:00 +23°C° 0 mm 2 mps 759 mmHg 58%
    09:00 +26°C° 0 mm 2 mps 759 mmHg 52%
    10:00 +28°C° 0 mm 1 mps 759 mmHg 46%
    11:00 +30°C° 0 mm 1 mps 758 mmHg 41%
    12:00 +33°C° 0 mm 1 mps 758 mmHg 36%
    13:00 +34°C° 0 mm 2 mps 757 mmHg 34%
    14:00 +35°C° 0 mm 2 mps 756 mmHg 33%
    15:00 +35°C° 0 mm 3 mps 755 mmHg 31%
    16:00 +33°C° 0 mm 3 mps 755 mmHg 36%
    17:00 +30°C° 0 mm 2 mps 756 mmHg 41%
    18:00 +28°C° 0 mm 1 mps 756 mmHg 46%
    19:00 +27°C° 0 mm 1 mps 756 mmHg 49%
    20:00 +26°C° 0 mm 1 mps 757 mmHg 51%
    21:00 +24°C° 0 mm 1 mps 757 mmHg 54%
    22:00 +24°C° 0 mm 2 mps 757 mmHg 55%
    23:00 +23°C° 0 mm 2 mps 757 mmHg 57%

    24 February, Sunday

    Time Temperature Precipitation Wind Pressure Humidity
    00:00 +23°C° 0 mm 2 mps 757 mmHg 58%
    01:00 +21°C° 0 mm 2 mps 757 mmHg 59%
    02:00 +22°C° 0 mm 1 mps 756 mmHg 59%
    03:00 +22°C° 0 mm 1 mps 756 mmHg 60%
    04:00 +22°C° 0 mm 1 mps 757 mmHg 62%
    05:00 +21°C° 0 mm 1 mps 757 mmHg 63%
    06:00 +20°C° 0 mm 2 mps 757 mmHg 65%
    07:00 +21°C° 0 mm 2 mps 758 mmHg 61%
    08:00 +24°C° 0 mm 2 mps 758 mmHg 56%
    09:00 +26°C° 0 mm 2 mps 759 mmHg 52%
    10:00 +29°C° 0 mm 2 mps 758 mmHg 46%
    11:00 +31°C° 0 mm 1 mps 758 mmHg 39%
    12:00 +33°C° 0 mm 1 mps 757 mmHg 33%
    13:00 +35°C° 0 mm 2 mps 756 mmHg 32%
    14:00 +35°C° 0 mm 3 mps 756 mmHg 31%
    15:00 +35°C° 0 mm 4 mps 755 mmHg 30%
    16:00 +33°C° 0 mm 3 mps 755 mmHg 34%
    17:00 +30°C° 0 mm 2 mps 755 mmHg 39%
    18:00 +28°C° 0 mm 2 mps 755 mmHg 43%
    19:00 +28°C° 0 mm 1 mps 756 mmHg 44%
    20:00 +27°C° 0 mm 1 mps 756 mmHg 44%
    21:00 +26°C° 0 mm 1 mps 757 mmHg 45%
    22:00 +25°C° 0.1 mm 2 mps 757 mmHg 48%
    23:00 +25°C° 0.1 mm 3 mps 757 mmHg 52%
    Show more